Location: ?
(35.3544°N, 139.4507°E)
Time: 11:57:28
(UTC+00:00)

BlueWalker 3 - Pass Details

Date: 03 August 2024
Orbit: 476 x 487 km, 53.2° (Epoch: 11 September)

Event Time Altitude Azimuth Distance (km) Brightness Sun altitude
Exits shadow 19:10:50 - 265° (W) 1,721 4.1 -8.6°
Reaches altitude 10° 19:10:57 10° 266° (W) 1,682 4.0 -8.6°
Maximum altitude 19:14:11 26° 325° (NW) 1,006 3.4 -8.0°
Drops below altitude 10° 19:17:26 10° 23° (NNE) 1,692 5.4 -7.5°
Sets 19:19:53 0° 36° (NE) 2,577 6.8 -7.0°
